Location: McCall
(45.0000°N, 116.0000°W)
Time: 05:18:01
(UTC-06:00)

Saudisat 1A - Visible Passes

Search period start: 24 October 2014 00:00
Search period end: 02 November 2014 23:00
Orbit: 598 x 608 km, 64.6° (Epoch: 23 October)

Date Brightness Start Highest point End Pass type
(mag) Time Alt. Az. Time Alt. Az. Time Alt. Az.
26 Oct 11.6 07:04:05 10° SE 07:05:23 11° ESE 07:06:40 10° E visible
27 Oct 10.9 07:13:53 10° SSE 07:17:09 21° ESE 07:20:26 10° ENE visible
28 Oct 9.7 07:24:59 10° S 07:29:01 37° ESE 07:33:06 10° NE visible
29 Oct 8.4 07:36:38 10° SSW 07:40:59 69° ESE 07:45:23 10° NE visible
30 Oct 11.0 06:11:28 10° SE 06:14:01 15° ESE 06:16:34 10° ENE visible
31 Oct 10.1 06:22:05 10° S 06:25:48 27° ESE 06:29:33 10° ENE visible
01 Nov 8.9 06:33:28 10° SSW 06:37:42 50° ESE 06:41:58 10° NE visible
02 Nov 11.0 04:09:41 10° ESE 04:10:50 11° ESE 04:11:59 10° E visible
02 Nov 7.9 05:46:10 16° SW 05:49:41 89° NW 05:54:08 10° NE visible
